Location: Roland
(31.1349°N, 85.4372°W)
Time: 19:15:37
(UTC+00:00)

SR - Pass Details

Date: 23 April 2021
Orbit: 573 x 882 km, 66.7° (Epoch: 13 May)

Event Time Altitude Azimuth Distance (km) Brightness Sun altitude
Rises 22:48:52 0° 315° (NW) 3,378 ? 17.4°
Reaches altitude 10° 22:52:11 10° 296° (WNW) 2,388 ? 16.7°
Maximum altitude 22:55:39 17° 257° (WSW) 1,867 ? 16.0°
Drops below altitude 10° 22:58:57 10° 217° (SW) 2,252 ? 15.3°
Sets 23:01:59 0° 197° (SSW) 3,104 ? 14.6°
